Location: Chuathbaluk
(61.5726°N, 159.2454°W)
Time: 10:22:34
(UTC+00:00)

Explorer 7 - Pass Details

Date: 30 November 2020
Orbit: 484 x 678 km, 50.3° (Epoch: 17 January)

Event Time Altitude Azimuth Distance (km) Brightness Sun altitude
Exits shadow 16:01:06 15° 193° (SSW) 1,530 9.0 -22.0°
Drops below altitude 10° 16:03:15 10° 161° (SSE) 1,803 9.7 -21.7°
Sets 16:06:09 0° 138° (SE) 2,652 11.1 -21.4°
